EWG96U EDDL-LIMC

Flight info

Callsign EWG96U
Flight time N/A
Altitude 33000
Route KUMIK7T KUMIK L603 BOMBI N850 RINEX DCT KRH DCT NATOR DCT TRA N850 DEGAD Z424 RIXUV
Aircraft A319/M-SDE2E3FGIJ1RWXY/EB1

Departure

Time N/A
Airport Düsseldorf Airport (EDDL)

Arrival

Time 2026-05-01 13:42
Airport Milan Malpensa International Airport (LIMC)
Time Latitude Longitude Altitude Speed Heading
2026-05-01 13:07 48.36939 8.38418 33293 ft 424 kts 191°
2026-05-01 13:07 48.34049 8.37507 33286 ft 424 kts 192°
2026-05-01 13:08 48.28283 8.35679 33293 ft 423 kts 192°
2026-05-01 13:08 48.22528 8.33864 33288 ft 422 kts 191°
2026-05-01 13:09 48.16736 8.32570 33283 ft 421 kts 180°
2026-05-01 13:09 48.10940 8.33582 33272 ft 419 kts 170°
2026-05-01 13:10 48.05180 8.34991 33272 ft 419 kts 170°
2026-05-01 13:10 47.99416 8.36380 33274 ft 419 kts 170°
2026-05-01 13:11 47.93654 8.37763 33275 ft 419 kts 170°
2026-05-01 13:11 47.87957 8.39133 33272 ft 419 kts 170°
2026-05-01 13:12 47.82197 8.40520 33275 ft 419 kts 170°
2026-05-01 13:12 47.76440 8.41898 33277 ft 419 kts 170°
2026-05-01 13:13 47.70679 8.43276 33285 ft 419 kts 170°
2026-05-01 13:13 47.64910 8.44472 33290 ft 420 kts 173°
2026-05-01 13:14 47.59085 8.45268 33304 ft 420 kts 174°
2026-05-01 13:14 47.53266 8.46007 33311 ft 420 kts 174°
2026-05-01 13:15 47.47448 8.46831 33310 ft 420 kts 174°
2026-05-01 13:15 47.41629 8.47696 33306 ft 420 kts 173°
2026-05-01 13:16 47.35808 8.48561 33312 ft 421 kts 173°
2026-05-01 13:16 47.29983 8.49421 33307 ft 421 kts 174°
2026-05-01 13:17 47.18346 8.51110 33281 ft 420 kts 174°
2026-05-01 13:18 47.09605 8.52389 33283 ft 420 kts 174°
2026-05-01 13:18 47.03780 8.53237 33283 ft 421 kts 174°
2026-05-01 13:19 46.97951 8.54072 33282 ft 421 kts 174°
2026-05-01 13:20 46.89197 8.55332 33283 ft 422 kts 174°
2026-05-01 13:20 46.86269 8.55753 33141 ft 424 kts 174°
2026-05-01 13:20 46.83335 8.56174 32851 ft 424 kts 174°
2026-05-01 13:21 46.77455 8.57011 32283 ft 425 kts 174°
2026-05-01 13:21 46.74514 8.57434 32008 ft 424 kts 173°
2026-05-01 13:21 46.71586 8.57909 31732 ft 423 kts 172°
2026-05-01 13:21 46.68673 8.58455 31461 ft 422 kts 171°
2026-05-01 13:22 46.65733 8.59053 31186 ft 420 kts 171°
2026-05-01 13:22 46.62884 8.59649 30915 ft 419 kts 171°
2026-05-01 13:22 46.59969 8.60253 30619 ft 416 kts 171°
2026-05-01 13:22 46.57114 8.60836 30156 ft 413 kts 171°
2026-05-01 13:23 46.54277 8.61404 29662 ft 410 kts 171°
2026-05-01 13:23 46.51497 8.61952 29177 ft 408 kts 171°
2026-05-01 13:23 46.48697 8.62495 28737 ft 405 kts 171°
2026-05-01 13:23 46.45913 8.63030 28298 ft 402 kts 171°
2026-05-01 13:24 46.43159 8.63655 27889 ft 399 kts 169°
2026-05-01 13:24 46.40438 8.64413 27481 ft 397 kts 167°
2026-05-01 13:24 46.37748 8.65244 27072 ft 394 kts 166°
2026-05-01 13:25 46.32420 8.66951 26256 ft 390 kts 166°
2026-05-01 13:25 46.29777 8.67778 25841 ft 388 kts 167°
2026-05-01 13:25 46.27110 8.68588 25411 ft 386 kts 167°
2026-05-01 13:25 46.24489 8.69366 25003 ft 384 kts 167°
2026-05-01 13:26 46.21880 8.70132 24608 ft 381 kts 167°
2026-05-01 13:26 46.19290 8.70890 24184 ft 379 kts 167°
2026-05-01 13:26 46.16712 8.71648 23739 ft 377 kts 167°
2026-05-01 13:26 46.14151 8.72402 23271 ft 374 kts 167°
2026-05-01 13:27 46.11646 8.73141 22801 ft 371 kts 167°
2026-05-01 13:27 46.09125 8.73881 22325 ft 368 kts 167°
2026-05-01 13:27 46.04142 8.75334 21457 ft 362 kts 167°
2026-05-01 13:28 45.99205 8.76779 20611 ft 357 kts 166°
2026-05-01 13:28 45.96788 8.77493 20186 ft 354 kts 166°
2026-05-01 13:29 45.92123 8.78867 19167 ft 347 kts 166°
2026-05-01 13:29 45.87430 8.80236 18031 ft 341 kts 166°
2026-05-01 13:30 45.78304 8.82881 15852 ft 328 kts 166°
2026-05-01 13:31 45.73860 8.84138 14825 ft 323 kts 167°
2026-05-01 13:31 45.67325 8.85963 13146 ft 318 kts 167°
2026-05-01 13:32 45.63023 8.87167 12050 ft 312 kts 168°
2026-05-01 13:33 45.56718 8.88933 10490 ft 304 kts 168°
2026-05-01 13:33 45.52608 8.90082 9433 ft 298 kts 168°
2026-05-01 13:34 45.48572 8.91208 8407 ft 293 kts 168°
2026-05-01 13:34 45.44611 8.92323 7466 ft 287 kts 168°
2026-05-01 13:35 45.40843 8.93373 7043 ft 260 kts 168°
2026-05-01 13:35 45.39102 8.93850 6804 ft 250 kts 167°
2026-05-01 13:35 45.35779 8.94108 6122 ft 239 kts 200°
2026-05-01 13:36 45.34836 8.93309 5800 ft 240 kts 222°
2026-05-01 13:36 45.33958 8.91315 5451 ft 241 kts 256°
2026-05-01 13:36 45.34817 8.87025 4834 ft 233 kts 317°
2026-05-01 13:37 45.36052 8.85526 4520 ft 234 kts 323°
2026-05-01 13:37 45.37328 8.84101 4209 ft 233 kts 323°
2026-05-01 13:37 45.38611 8.82696 3915 ft 232 kts 323°
2026-05-01 13:37 45.39879 8.81320 3763 ft 225 kts 323°
2026-05-01 13:38 45.42434 8.79012 3421 ft 215 kts 347°
2026-05-01 13:38 45.43902 8.78599 3245 ft 215 kts 351°
2026-05-01 13:38 45.45370 8.78207 3113 ft 215 kts 350°
2026-05-01 13:39 45.46834 8.77807 3016 ft 214 kts 349°
2026-05-01 13:39 45.48297 8.77405 3011 ft 214 kts 349°
2026-05-01 13:39 45.49749 8.77007 3001 ft 208 kts 349°
2026-05-01 13:39 45.51142 8.76624 2823 ft 201 kts 349°
2026-05-01 13:40 45.52500 8.76250 2606 ft 194 kts 349°
2026-05-01 13:40 45.53808 8.75890 2329 ft 184 kts 350°
2026-05-01 13:40 45.55014 8.75558 2091 ft 173 kts 349°
2026-05-01 13:40 45.56162 8.75242 1857 ft 158 kts 349°
2026-05-01 13:41 45.57175 8.74963 1648 ft 141 kts 349°
2026-05-01 13:41 45.58115 8.74705 1456 ft 135 kts 349°
2026-05-01 13:41 45.59028 8.74463 1275 ft 133 kts 349°
2026-05-01 13:41 45.59931 8.74194 1081 ft 133 kts 347°
2026-05-01 13:42 45.60828 8.73962 911 ft 133 kts 349°
2026-05-01 13:42 45.61735 8.73710 749 ft 131 kts 347°
2026-05-01 13:42 45.62507 8.73488 738 ft 92 kts 348°
2026-05-01 13:42 45.62901 8.73387 734 ft 31 kts 350°
2026-05-01 13:43 45.63073 8.73332 733 ft 27 kts 340°
2026-05-01 13:43 45.63174 8.73236 736 ft 17 kts 318°
2026-05-01 13:43 45.63251 8.73093 736 ft 20 kts 303°
2026-05-01 13:43 45.63332 8.72918 736 ft 23 kts 303°
2026-05-01 13:44 45.63394 8.72785 735 ft 14 kts 302°
2026-05-01 13:44 45.63368 8.72652 736 ft 16 kts 221°
2026-05-01 13:44 45.63278 8.72566 736 ft 19 kts 213°
2026-05-01 13:44 45.63172 8.72466 737 ft 19 kts 213°
2026-05-01 13:45 45.63099 8.72397 740 ft 13 kts 214°
2026-05-01 13:45 45.63036 8.72300 741 ft 15 kts 249°
2026-05-01 13:45 45.63013 8.72131 737 ft 20 kts 261°
2026-05-01 13:45 45.62999 8.71988 736 ft 9 kts 259°
2026-05-01 13:46 45.62980 8.71887 735 ft 12 kts 255°
2026-05-01 13:46 45.62961 8.71773 736 ft 9 kts 245°
2026-05-01 13:46 45.62895 8.71762 736 ft 12 kts 169°
2026-05-01 13:46 45.62802 8.71787 736 ft 15 kts 169°
2026-05-01 13:47 45.62697 8.71815 734 ft 12 kts 169°
2026-05-01 13:47 45.62642 8.71765 736 ft 10 kts 253°
2026-05-01 13:47 45.62630 8.71686 736 ft 7 kts 259°
2026-05-01 13:47 45.62620 8.71612 736 ft 5 kts 256°
2026-05-01 13:48 45.62588 8.71591 736 ft 7 kts 172°
2026-05-01 13:48 45.62551 8.71602 736 ft 4 kts 168°
2026-05-01 13:48 45.62538 8.71606 736 ft 0 kts 168°